Terug naar catalogus

QIANFAN-194

ActiefCommunicatiePO
NORAD 69412·PAYLOAD·🇨🇳 China

Gelanceerd Jun 5, 2026 vanaf Wenchang Space Launch Site

Loading…

Volgende Passages (komende 24 uur)

TLE

VersSource: Space-Track

Epoch: Sep 14, 2026, 13:48 UTC

1 69412U 26125M   26257.57518113 -.00000002  00000-0 -21228-4 0  9994
2 69412  88.9899 270.9138 0001966 102.5333 257.6038 13.51026036 14018

Volg QIANFAN-194 in realtime met AllMySat

Download on the App Store